Time,TemperatureF,DewpointF,PressureIn,WindDirection,WindDirectionDegrees,WindSpeedMPH,WindSpeedGustMPH,Humidity,HourlyPrecipIn,Conditions,Clouds,dailyrainin,SoftwareType,DateUTC
2013-10-17 00:14:00,60.0,59.0,29.96,SW,234,0.0,2.0,96,0.00,,,0.00,,2013-10-17 04:14:00,
2013-10-17 00:24:00,60.0,59.0,29.95,SSE,148,0.0,2.0,96,0.00,,,0.00,,2013-10-17 04:24:00,
2013-10-17 00:43:00,60.0,59.0,29.94,SE,126,0.0,2.0,96,0.00,,,0.00,,2013-10-17 04:43:00,
2013-10-17 00:54:00,59.0,58.0,29.94,SE,126,0.0,1.0,96,0.00,,,0.00,,2013-10-17 04:54:00,
2013-10-17 01:13:00,59.0,58.0,29.95,SE,126,0.0,1.0,96,0.00,,,0.00,,2013-10-17 05:13:00,
2013-10-17 01:23:00,58.0,57.0,29.95,SW,223,0.0,1.0,97,0.00,,,0.00,,2013-10-17 05:23:00,
2013-10-17 01:42:00,58.0,57.0,29.95,SW,223,0.0,1.0,97,0.00,,,0.00,,2013-10-17 05:42:00,
2013-10-17 01:52:00,58.0,57.0,29.94,West,269,0.0,1.0,97,0.00,,,0.00,,2013-10-17 05:52:00,
2013-10-17 02:13:00,58.0,57.0,29.95,WSW,242,0.0,2.0,97,0.00,,,0.00,,2013-10-17 06:13:00,
2013-10-17 02:22:00,58.0,57.0,29.94,SW,228,0.0,1.0,97,0.00,,,0.00,,2013-10-17 06:22:00,
2013-10-17 02:42:00,58.0,57.0,29.93,SW,218,1.0,2.0,97,0.00,,,0.00,,2013-10-17 06:42:00,
2013-10-17 02:52:00,58.0,57.0,29.93,SW,215,1.0,3.0,97,0.00,,,0.00,,2013-10-17 06:52:00,
2013-10-17 03:02:00,58.0,57.0,29.93,SW,215,1.0,3.0,97,0.00,,,0.00,,2013-10-17 07:02:00,
2013-10-17 03:11:00,58.0,57.0,29.93,SW,235,1.0,2.0,97,0.00,,,0.00,,2013-10-17 07:11:00,
2013-10-17 03:22:00,58.0,57.0,29.92,SW,234,0.0,1.0,97,0.00,,,0.00,,2013-10-17 07:22:00,
2013-10-17 03:43:00,58.0,57.0,29.93,WNW,283,1.0,2.0,97,0.00,,,0.00,,2013-10-17 07:43:00,
2013-10-17 03:52:00,58.0,57.0,29.93,WSW,242,1.0,2.0,97,0.00,,,0.00,,2013-10-17 07:52:00,
2013-10-17 04:12:00,59.0,58.0,29.92,WSW,257,0.0,2.0,97,0.00,,,0.00,,2013-10-17 08:12:00,
2013-10-17 04:22:00,59.0,58.0,29.92,SW,233,0.0,1.0,97,0.00,,,0.00,,2013-10-17 08:22:00,
2013-10-17 04:42:00,59.0,58.0,29.92,SSE,155,0.0,1.0,97,0.00,,,0.00,,2013-10-17 08:42:00,
2013-10-17 04:52:00,59.0,58.0,29.91,SSE,156,0.0,0.0,97,0.00,,,0.00,,2013-10-17 08:52:00,
2013-10-17 05:11:00,59.0,58.0,29.91,SE,127,0.0,1.0,97,0.00,,,0.00,,2013-10-17 09:11:00,
2013-10-17 05:22:00,60.0,59.0,29.91,SE,129,1.0,3.0,97,0.00,,,0.00,,2013-10-17 09:22:00,
2013-10-17 05:43:00,60.0,59.0,29.91,SSE,166,0.0,4.0,97,0.00,,,0.00,,2013-10-17 09:43:00,
2013-10-17 05:53:00,60.0,59.0,29.92,SSE,149,1.0,4.0,97,0.00,,,0.00,,2013-10-17 09:53:00,
2013-10-17 06:12:00,60.0,59.0,29.92,SW,231,1.0,2.0,97,0.00,,,0.00,,2013-10-17 10:12:00,
2013-10-17 06:23:00,60.0,59.0,29.92,SSW,210,1.0,3.0,97,0.00,,,0.00,,2013-10-17 10:23:00,
2013-10-17 06:42:00,60.0,59.0,29.92,West,264,0.0,5.0,97,0.00,,,0.00,,2013-10-17 10:42:00,
2013-10-17 06:53:00,60.0,59.0,29.92,SW,221,2.0,4.0,97,0.00,,,0.00,,2013-10-17 10:53:00,
2013-10-17 07:12:00,60.0,59.0,29.92,South,171,0.0,2.0,97,0.00,,,0.00,,2013-10-17 11:12:00,
2013-10-17 07:22:00,60.0,59.0,29.92,SSW,193,1.0,3.0,97,0.00,,,0.00,,2013-10-17 11:22:00,
2013-10-17 07:42:00,60.0,59.0,29.92,SW,223,2.0,3.0,97,0.00,,,0.00,,2013-10-17 11:42:00,
2013-10-17 07:52:00,60.0,59.0,29.92,SW,225,1.0,3.0,97,0.00,,,0.00,,2013-10-17 11:52:00,
2013-10-17 08:12:00,60.0,59.0,29.93,SSW,198,2.0,6.0,97,0.00,,,0.00,,2013-10-17 12:12:00,
2013-10-17 08:22:00,61.0,60.0,29.92,SSW,210,1.0,5.0,97,0.00,,,0.00,,2013-10-17 12:22:00,
2013-10-17 08:42:00,61.0,60.0,29.93,SSW,205,2.0,5.0,97,0.00,,,0.00,,2013-10-17 12:42:00,
2013-10-17 08:52:00,61.0,60.0,29.93,SSW,198,1.0,6.0,97,0.00,,,0.00,,2013-10-17 12:52:00,
2013-10-17 09:11:00,61.0,60.0,29.93,SE,138,1.0,7.0,96,0.00,,,0.00,,2013-10-17 13:11:00,
2013-10-17 09:22:00,62.0,61.0,29.93,South,169,3.0,7.0,96,0.00,,,0.00,,2013-10-17 13:22:00,
2013-10-17 09:42:00,62.0,61.0,29.93,SSW,211,1.0,6.0,96,0.00,,,0.00,,2013-10-17 13:42:00,
2013-10-17 09:52:00,62.0,61.0,29.93,SE,127,1.0,6.0,95,0.00,,,0.00,,2013-10-17 13:52:00,
2013-10-17 10:11:00,63.0,62.0,29.93,SE,132,0.0,6.0,95,0.00,,,0.00,,2013-10-17 14:11:00,
2013-10-17 10:22:00,64.0,62.0,29.93,ESE,117,2.0,4.0,93,0.00,,,0.00,,2013-10-17 14:22:00,
2013-10-17 10:42:00,64.0,62.0,29.92,SSW,192,1.0,4.0,93,0.00,,,0.00,,2013-10-17 14:42:00,
2013-10-17 10:52:00,64.0,62.0,29.92,SSE,152,2.0,4.0,92,0.00,,,0.00,,2013-10-17 14:52:00,
2013-10-17 11:11:00,65.0,62.0,29.92,NW,305,2.0,4.0,91,0.00,,,0.00,,2013-10-17 15:11:00,
2013-10-17 11:22:00,65.0,61.0,29.92,WNW,300,6.0,12.0,86,0.00,,,0.00,,2013-10-17 15:22:00,
2013-10-17 11:43:00,66.0,62.0,29.91,WSW,245,2.0,7.0,86,0.00,,,0.00,,2013-10-17 15:43:00,
2013-10-17 11:54:00,67.0,62.0,29.91,West,264,2.0,6.0,84,0.00,,,0.00,,2013-10-17 15:54:00,
2013-10-17 12:12:00,67.0,62.0,29.91,WNW,290,3.0,8.0,83,0.00,,,0.00,,2013-10-17 16:12:00,
2013-10-17 12:23:00,67.0,62.0,29.91,West,277,3.0,6.0,84,0.00,,,0.00,,2013-10-17 16:23:00,
2013-10-17 12:42:00,67.0,61.0,29.90,WSW,252,2.0,9.0,82,0.00,,,0.00,,2013-10-17 16:42:00,
2013-10-17 12:54:00,68.0,61.0,29.90,SW,231,5.0,10.0,79,0.00,,,0.00,,2013-10-17 16:54:00,
2013-10-17 13:12:00,68.0,61.0,29.89,WNW,288,3.0,8.0,79,0.00,,,0.00,,2013-10-17 17:12:00,
2013-10-17 13:22:00,68.0,61.0,29.88,SW,223,2.0,4.0,78,0.00,,,0.00,,2013-10-17 17:22:00,
2013-10-17 13:42:00,69.0,62.0,29.88,SSE,167,1.0,5.0,79,0.00,,,0.00,,2013-10-17 17:42:00,
2013-10-17 13:53:00,69.0,62.0,29.86,SW,218,2.0,4.0,78,0.00,,,0.00,,2013-10-17 17:53:00,
2013-10-17 14:12:00,68.0,62.0,29.87,SSE,167,2.0,4.0,81,0.00,,,0.00,,2013-10-17 18:12:00,
2013-10-17 14:22:00,67.0,62.0,29.86,SE,145,1.0,3.0,84,0.00,,,0.00,,2013-10-17 18:22:00,
2013-10-17 14:42:00,68.0,62.0,29.86,SW,224,1.0,2.0,82,0.00,,,0.00,,2013-10-17 18:42:00,
2013-10-17 14:52:00,68.0,62.0,29.85,WSW,252,0.0,2.0,80,0.00,,,0.00,,2013-10-17 18:52:00,
2013-10-17 15:12:00,68.0,63.0,29.85,SE,140,2.0,5.0,83,0.00,,,0.00,,2013-10-17 19:12:00,
2013-10-17 15:22:00,68.0,63.0,29.85,SSE,148,2.0,5.0,84,0.00,,,0.00,,2013-10-17 19:22:00,
2013-10-17 15:42:00,68.0,63.0,29.85,SE,142,2.0,5.0,85,0.00,,,0.00,,2013-10-17 19:42:00,
2013-10-17 15:53:00,67.0,63.0,29.85,SSW,198,2.0,5.0,86,0.00,,,0.00,,2013-10-17 19:53:00,
2013-10-17 16:11:00,67.0,63.0,29.84,SSE,162,3.0,6.0,86,0.00,,,0.00,,2013-10-17 20:11:00,
2013-10-17 16:22:00,67.0,63.0,29.84,SSE,148,3.0,7.0,86,0.00,,,0.00,,2013-10-17 20:22:00,
2013-10-17 16:42:00,67.0,63.0,29.83,SSE,147,2.0,5.0,88,0.00,,,0.00,,2013-10-17 20:42:00,
2013-10-17 16:52:00,68.0,63.0,29.83,SE,144,3.0,9.0,85,0.00,,,0.00,,2013-10-17 20:52:00,
2013-10-17 17:12:00,67.0,63.0,29.83,SSE,162,4.0,8.0,86,0.00,,,0.00,,2013-10-17 21:12:00,
2013-10-17 17:22:00,66.0,62.0,29.83,ESE,121,2.0,10.0,87,0.00,,,0.00,,2013-10-17 21:22:00,
2013-10-17 17:44:00,66.0,62.0,29.83,SE,127,1.0,6.0,87,0.00,,,0.00,,2013-10-17 21:44:00,
2013-10-17 17:54:00,66.0,62.0,29.83,SSE,149,1.0,8.0,88,0.00,,,0.00,,2013-10-17 21:54:00,
2013-10-17 18:14:00,65.0,62.0,29.82,South,174,2.0,6.0,89,0.00,,,0.00,,2013-10-17 22:14:00,
2013-10-17 18:24:00,64.0,61.0,29.82,South,180,3.0,6.0,91,0.00,,,0.00,,2013-10-17 22:24:00,
2013-10-17 18:43:00,63.0,61.0,29.83,SSE,160,1.0,6.0,92,0.00,,,0.00,,2013-10-17 22:43:00,
2013-10-17 18:53:00,63.0,61.0,29.82,SW,236,3.0,6.0,93,0.00,,,0.00,,2013-10-17 22:53:00,
2013-10-17 19:13:00,62.0,60.0,29.82,ESE,115,2.0,5.0,94,0.00,,,0.00,,2013-10-17 23:13:00,
2013-10-17 19:22:00,62.0,61.0,29.81,SSE,155,3.0,7.0,95,0.00,,,0.00,,2013-10-17 23:22:00,
2013-10-17 19:43:00,62.0,61.0,29.81,SSE,151,2.0,5.0,95,0.00,,,0.00,,2013-10-17 23:43:00,
2013-10-17 19:53:00,62.0,61.0,29.82,SE,143,3.0,9.0,95,0.00,,,0.00,,2013-10-17 23:53:00,
2013-10-17 20:12:00,62.0,61.0,29.81,SSW,212,2.0,7.0,95,0.00,,,0.00,,2013-10-18 00:12:00,
2013-10-17 20:22:00,62.0,61.0,29.82,South,189,3.0,8.0,95,0.00,,,0.00,,2013-10-18 00:22:00,
2013-10-17 20:42:00,62.0,61.0,29.82,South,175,3.0,7.0,95,0.00,,,0.00,,2013-10-18 00:42:00,
2013-10-17 20:53:00,62.0,60.0,29.81,SSW,198,4.0,10.0,94,0.00,,,0.00,,2013-10-18 00:53:00,
2013-10-17 21:12:00,62.0,60.0,29.81,SE,144,3.0,10.0,94,0.00,,,0.00,,2013-10-18 01:12:00,
2013-10-17 21:22:00,63.0,62.0,29.82,SW,218,3.0,11.0,95,0.00,,,0.00,,2013-10-18 01:22:00,
2013-10-17 21:42:00,63.0,62.0,29.81,ESE,117,6.0,13.0,95,0.00,,,0.00,,2013-10-18 01:42:00,
2013-10-17 21:53:00,63.0,62.0,29.80,SE,146,3.0,10.0,95,0.00,,,0.00,,2013-10-18 01:53:00,
2013-10-17 22:11:00,63.0,62.0,29.80,South,169,2.0,8.0,95,0.00,,,0.00,,2013-10-18 02:11:00,
2013-10-17 22:22:00,63.0,62.0,29.81,ESE,117,1.0,6.0,95,0.00,,,0.00,,2013-10-18 02:22:00,
2013-10-17 22:42:00,63.0,62.0,29.80,SSW,201,5.0,11.0,95,0.00,,,0.00,,2013-10-18 02:42:00,
2013-10-17 22:52:00,63.0,62.0,29.80,SSW,202,3.0,9.0,95,0.00,,,0.00,,2013-10-18 02:52:00,
2013-10-17 23:11:00,63.0,62.0,29.79,SSW,201,3.0,8.0,95,0.00,,,0.00,,2013-10-18 03:11:00,
2013-10-17 23:22:00,63.0,62.0,29.78,SE,132,3.0,7.0,96,0.00,,,0.00,,2013-10-18 03:22:00,
2013-10-17 23:44:00,63.0,62.0,29.78,SSE,168,4.0,8.0,96,0.00,,,0.00,,2013-10-18 03:44:00,
2013-10-17 23:55:00,63.0,62.0,29.78,SSW,204,2.0,7.0,96,0.00,,,0.00,,2013-10-18 03:55:00,